PROFILE

 METAR AND TAF INFORMATION
ADDS - METARS form results

(0436 UTC 13 July 2020)
http://aviationweather.gov/metar/data/
 
LFPG 130430Z 36009KT CAVOK 12/09 Q1024 NOSIG
LFPG 130400Z 01009KT CAVOK 12/08 Q1024 NOSIG
TAF LFPG 122300Z 1300/1406 36010KT CAVOK TX27/1315Z TN12/1304Z 

 AIRPORT MAP

 RUNWAY INFORMATION
Runway 08L Runway length 13829 ft Runway width 148 ft
Runway elevation 338 ft Runway displaced threshold 0 ft Runway heading 85
Runway 26R Runway length 13829 ft Runway width 148 ft
Runway elevation 318 ft Runway displaced threshold 1969 ft Runway heading 265
Runway 08R Runway length 8858 ft Runway width 197 ft
Runway elevation 336 ft Runway displaced threshold 0 ft Runway heading 85
Runway 26L Runway length 8858 ft Runway width 197 ft
Runway elevation 316 ft Runway displaced threshold 0 ft Runway heading 265
Runway 09L Runway length 8858 ft Runway width 197 ft
Runway elevation 378 ft Runway displaced threshold 0 ft Runway heading 85
Runway 27R Runway length 8858 ft Runway width 197 ft
Runway elevation 392 ft Runway displaced threshold 0 ft Runway heading 265
Runway 09R Runway length 13780 ft Runway width 148 ft
Runway elevation 370 ft Runway displaced threshold 0 ft Runway heading 86
Runway 27L Runway length 13780 ft Runway width 148 ft
Runway elevation 387 ft Runway displaced threshold 1969 ft Runway heading 266

 AIRPORT FREQUENCIES
Type APP Name DE GAULLE Frequency 121.15 MHZ
Type APP Name DE GAULLE Frequency 136.275 MHZ
Type ATIS Name DE GAULLE Frequency 127.125 MHZ
Type DEP Name DE GAULLE Frequency 124.35 MHZ
Type GND Name DE GAULLE Frequency 118.1 MHZ
Type GND Name DE GAULLE Frequency 121.6 MHZ
Type PFLT Name DE GAULLE Frequency 126.65 MHZ
Type TWR Name DE GAULLE Frequency 119.25 MHZ
Type TWR Name DE GAULLE Frequency 120.65 MHZ

 AIRPORT NEAR NAVIGATION AIDS
Type VOR-DME Name Charles de Gaulle Frequency 115350 KHZ
Type VOR-DME Name Charles de Gaulle Frequency 117050 KHZ